ONEWEB-0220, 48232

Orbit data source: Space-Track

ONEWEB-0220, 48232 is a payload satellite owned by One Web (NAA) (UK) in LEO that was launched on Sun, 25 Apr 2021 UTC via a SOYUZ-2-1B launch vehicle from the Vostochny Cosmodrome (VOSTO). Payload-class satellites include a variety of spacecraft equipped with specific instruments for various scientific and technological missions. These include communications satellites like Starlink; space stations such as the ISS; scientific satellites like the Hubble; Earth observation satellites from companies like Planet Labs, Umbra, and HawkEye 360; GPS; miniature CubeSats for education and research; and military/defense satellites.

Loading next visibility...
Identifier
48232, 2021-031Y
Orbit
LEO
Country
Flag of UKUK
Related business
Manufacturer
One Web
Mission
Operational Commercial Communications
Bus & Motor
ARROW, Unknown motor
Mass
148 kg wet, ~140 kg dry
Launch date (UTC)
2021-04-25 (5 years ago)
Launch vehicle
SOYUZ-2-1B
Launch site
Vostochny Cosmodrome (VOSTO)
Object type
Payload
Rocket body
Debris
Shape & HBR
Trap Box + 2 Pan, 6.7 m
Radar Cross Section
3.464 m², Large (>1 m²)

Expand to show TLE details & history
Last TLE update: 18 hours ago

TLE from 18 hours ago
0 ONEWEB-0220
1 48232U 21031Y   25306.11329319 -.00000245  00000-0 -69415-3 0  9992
2 48232  87.9014 334.9250 0001840  86.5470 273.5870 13.14501945218577
Epoch: 2025-11-02T02:43Z
TLE epoch observation values (Epoch: 2025-11-02T02:43:08.531Z)
Latitude
-0.00004°
Longitude
-107.49423°
Altitude
1,208.6 km
Speed
7.25 km/s
True Right ascension
22h 19m 41s
True Declination
0° 00' 00"
Sunlit
Object was in daylight at epoch
Visualization orbit readout
Latitude
Unknown
Longitude
Unknown
Altitude
Unknown
Speed
Unknown
Apparent Right ascension
Unknown
Apparent Declination
Unknown
Sunlit
N/A
Visualization observer readout
Local Sidereal Time
16:52:22
Azimuth
Unknown
Elevation
Unknown
Doppler factor
Unknown
Orbital elements
Apogee altitude
1,204.302 km
Perigee altitude
1,201.512 km
Semi-major axis
7,581.044 km
Eccentricity
0.00018
Inclination
87.9014°
RAAN
334.925°
Arg. of periapsis
86.547°
True anomaly
273.56596°
Mean anomaly
273.587°
Eccentric anomaly
273.57648°
Mean motion
3.28813 °/min
Orbital period
109.48 mins
BSTAR
-0.00069415
Loading maneuver chart data...
Computing Atmospheric mass density...
Loading historical data...
Loading historical data...
Loading historical data...
Loading historical data...
Loading historical data...
Loading historical data...
Loading historical data...

Documentation

Showing up to 5 results
|